Location: *
(34.6780°N, 135.8310°E)
Time: 11:48:29
(UTC+00:00)

Cosmos 1470 - Pass Details

Date: 18 October 2019
Orbit: 521 x 544 km, 82.5° (Epoch: 12 November)

Event Time Altitude Azimuth Distance (km) Brightness Sun altitude
Rises 19:49:15 0° 344° (NNW) 2,676 6.2 -16.3°
Reaches altitude 10° 19:51:30 10° 336° (NNW) 1,778 5.2 -15.8°
Maximum altitude 19:55:07 38° 268° (W) 818 3.2 -15.1°
Drops below altitude 10° 19:58:42 10° 199° (SSW) 1,755 5.2 -14.3°
Sets 20:00:55 0° 192° (SSW) 2,636 6.2 -13.9°
